Year,Month,Day,Hour,Minute,Value (Times are PST for windspeed in km/hr)
2011,09,25,09,38,4.50
2011,09,25,09,39,0.60
2011,09,25,09,40,0.00
2011,09,25,09,41,0.00
2011,09,25,09,42,0.00
2011,09,25,09,43,0.00
2011,09,25,09,44,0.00
2011,09,25,09,45,0.00
2011,09,25,09,46,0.00
2011,09,25,09,47,0.00
2011,09,25,09,48,0.00
2011,09,25,09,49,0.00
2011,09,25,09,50,0.00
2011,09,25,10,23,0.60
2011,09,25,10,24,0.70
2011,09,25,10,25,0.30
2011,09,25,10,26,1.90
2011,09,25,10,27,2.50
2011,09,25,10,28,0.60
2011,09,25,10,29,3.60
2011,09,25,10,30,3.00
2011,09,25,10,31,1.20
2011,09,25,10,32,1.00
2011,09,25,10,33,0.00
2011,09,25,10,34,7.30
2011,09,25,10,35,4.20
2011,09,25,10,36,4.00
2011,09,25,10,37,1.90
2011,09,25,10,38,0.00
2011,09,25,10,39,2.50
2011,09,25,10,40,6.40
2011,09,25,10,41,6.40
2011,09,25,10,42,6.40
2011,09,25,10,43,6.40
2011,09,25,10,44,6.40
2011,09,25,10,45,6.40
2011,09,25,10,46,6.40
2011,09,25,10,47,6.40
2011,09,25,10,48,6.40
2011,09,25,10,49,6.40
2011,09,25,11,06,1.60
2011,09,25,11,07,4.80
2011,09,25,11,08,2.20
2011,09,25,11,09,1.10
2011,09,25,11,10,0.20
2011,09,25,11,11,0.50
2011,09,25,11,12,0.20
2011,09,25,11,13,4.90
2011,09,25,11,14,6.00
2011,09,25,11,15,4.80
2011,09,25,11,16,2.50
2011,09,25,11,17,3.20
2011,09,25,11,18,0.10
2011,09,25,11,19,0.60
2011,09,25,11,20,2.00
2011,09,25,11,21,1.80
2011,09,25,11,22,2.30
2011,09,25,11,23,0.20
2011,09,25,11,24,3.50
2011,09,25,11,25,0.60
2011,09,25,11,26,2.60
2011,09,25,11,27,2.80
2011,09,25,11,28,0.30
2011,09,25,11,29,3.30
2011,09,25,11,30,2.80
2011,09,25,11,31,3.90
2011,09,25,11,32,0.80
2011,09,25,11,33,0.00
2011,09,25,11,34,0.20
2011,09,25,11,35,1.00
2011,09,25,11,36,1.50
2011,09,25,11,37,3.90
2011,09,25,11,38,2.50
2011,09,25,11,39,1.40
2011,09,25,11,40,0.20
2011,09,25,11,41,0.10
2011,09,25,11,42,0.90
2011,09,25,11,43,0.90
2011,09,25,11,44,4.30
2011,09,25,11,45,5.40
2011,09,25,11,46,3.30
2011,09,25,11,47,1.20
2011,09,25,11,48,2.10
2011,09,25,11,49,0.80
2011,09,25,11,50,4.30
2011,09,25,11,51,4.70
2011,09,25,11,52,3.10
2011,09,25,11,53,4.00
2011,09,25,11,54,2.80
2011,09,25,11,55,0.20
2011,09,25,11,56,0.00
2011,09,25,11,57,0.40
2011,09,25,11,58,0.00
2011,09,25,11,59,0.00
2011,09,25,12,00,0.60
2011,09,25,12,01,0.30
2011,09,25,12,02,0.00
2011,09,25,12,03,0.10
2011,09,25,12,04,0.00
2011,09,25,12,05,0.00
2011,09,25,12,06,0.00
2011,09,25,12,07,0.00
2011,09,25,12,08,0.00
2011,09,25,12,09,0.00
2011,09,25,12,10,0.50
2011,09,25,12,11,0.90
2011,09,25,12,12,0.10
2011,09,25,12,13,0.10
2011,09,25,12,14,0.20
2011,09,25,12,15,0.60
2011,09,25,12,16,0.30
2011,09,25,12,17,0.10
2011,09,25,12,18,0.00
2011,09,25,12,19,0.00
2011,09,25,12,20,0.00
2011,09,25,12,21,0.00
2011,09,25,12,22,0.00
2011,09,25,12,23,0.00
2011,09,25,12,24,0.00
2011,09,25,12,25,0.00
2011,09,25,12,26,0.10
2011,09,25,12,27,0.00
2011,09,25,12,28,0.00
2011,09,25,12,29,0.00
2011,09,25,12,30,0.00
2011,09,25,12,31,0.00
2011,09,25,12,32,0.00
2011,09,25,12,33,0.00
2011,09,25,12,34,0.00
2011,09,25,12,35,0.00
2011,09,25,12,36,0.00
2011,09,25,12,37,0.00
2011,09,25,12,38,0.10
2011,09,25,12,39,0.60
2011,09,25,12,40,0.10
2011,09,25,12,41,1.50
2011,09,25,12,42,5.60
2011,09,25,12,43,6.00
2011,09,25,12,44,5.80
2011,09,25,12,45,4.10
2011,09,25,12,46,0.20
2011,09,25,12,47,0.00
2011,09,25,12,48,0.00
2011,09,25,12,49,0.20
2011,09,25,12,50,3.10
2011,09,25,12,51,1.60
2011,09,25,12,52,1.40
2011,09,25,12,53,3.50
2011,09,25,12,54,1.80
2011,09,25,12,55,1.40
2011,09,25,12,56,1.40
2011,09,25,12,57,2.40
2011,09,25,12,58,1.00
2011,09,25,12,59,3.00
2011,09,25,13,00,5.20
2011,09,25,13,01,1.80
2011,09,25,13,02,1.00
2011,09,25,13,03,0.20
2011,09,25,13,04,0.20
2011,09,25,13,05,3.60
2011,09,25,13,06,1.90
2011,09,25,13,07,1.80
2011,09,25,13,08,0.10
2011,09,25,13,09,0.00
2011,09,25,13,10,0.10
2011,09,25,13,11,0.50
2011,09,25,13,12,5.30
2011,09,25,13,13,4.30
2011,09,25,13,14,1.10
2011,09,25,13,15,8.60
2011,09,25,13,16,11.10
2011,09,25,13,17,8.70
2011,09,25,13,18,12.50
2011,09,25,13,19,10.50
2011,09,25,13,20,5.60
2011,09,25,13,21,0.70
2011,09,25,13,22,7.50
2011,09,25,13,23,8.00
2011,09,25,13,24,4.90
2011,09,25,13,25,2.30
2011,09,25,13,26,3.70
2011,09,25,13,27,2.90
2011,09,25,13,28,1.80
2011,09,25,13,29,2.00
2011,09,25,13,30,1.60
2011,09,25,13,31,1.60
2011,09,25,13,32,1.60
2011,09,25,13,33,1.60
2011,09,25,13,34,1.60
2011,09,25,13,35,1.60
2011,09,25,13,36,1.60
2011,09,25,13,37,1.60
2011,09,25,13,38,1.60
2011,09,25,13,39,1.60
2011,09,25,14,47,7.80
2011,09,25,14,48,12.80
2011,09,25,14,49,12.90
2011,09,25,14,50,11.80
2011,09,25,14,51,30.10
2011,09,25,14,52,15.10
2011,09,25,14,53,20.80
2011,09,25,14,54,12.90
2011,09,25,14,55,9.30
2011,09,25,14,56,6.50
2011,09,25,14,57,18.50
2011,09,25,14,58,14.00
2011,09,25,14,59,11.30
2011,09,25,15,00,8.30
2011,09,25,15,01,11.00
2011,09,25,15,02,17.60
2011,09,25,15,03,15.40
2011,09,25,15,04,7.10
2011,09,25,15,05,11.30
2011,09,25,15,06,9.40
2011,09,25,15,07,14.40
2011,09,25,15,08,10.70
2011,09,25,15,09,17.80
2011,09,25,15,10,17.30
2011,09,25,15,11,10.50
2011,09,25,15,12,8.60
2011,09,25,15,13,15.60
2011,09,25,15,14,10.80
2011,09,25,15,15,8.40
2011,09,25,15,16,9.60
2011,09,25,15,17,9.50
2011,09,25,15,18,9.70
2011,09,25,15,19,10.20
2011,09,25,15,20,13.70
2011,09,25,15,21,7.70
2011,09,25,15,22,20.70
2011,09,25,15,23,21.90
2011,09,25,15,24,21.90
2011,09,25,15,25,20.20
2011,09,25,15,26,10.90
2011,09,25,15,27,8.00
2011,09,25,15,28,8.40
2011,09,25,15,29,8.30
2011,09,25,15,30,9.10
2011,09,25,15,31,20.30
2011,09,25,15,32,17.90
2011,09,25,15,33,13.80
2011,09,25,15,34,10.00
2011,09,25,15,35,13.80
2011,09,25,15,36,13.40
2011,09,25,15,37,23.90
2011,09,25,15,38,20.70
2011,09,25,15,39,6.90
2011,09,25,15,40,8.80
2011,09,25,15,41,18.40
2011,09,25,15,42,17.80
2011,09,25,15,43,21.30
2011,09,25,15,44,19.70
2011,09,25,15,45,7.40
2011,09,25,15,46,11.20
2011,09,25,15,47,12.20
2011,09,25,15,48,18.30
2011,09,25,15,49,20.00
2011,09,25,15,50,15.00
2011,09,25,15,51,18.60
2011,09,25,15,52,16.50
2011,09,25,15,53,9.00
2011,09,25,15,54,10.30
2011,09,25,15,55,10.20
2011,09,25,15,56,12.50
2011,09,25,15,57,6.10
2011,09,25,15,58,9.70
2011,09,25,15,59,10.70
2011,09,25,16,00,12.10
2011,09,25,16,01,9.50
2011,09,25,16,02,16.00
2011,09,25,16,03,10.20
2011,09,25,16,04,16.60
2011,09,25,16,05,15.00
2011,09,25,16,06,11.30
2011,09,25,16,07,14.30
2011,09,25,16,08,17.60
2011,09,25,16,09,13.50
2011,09,25,16,10,9.10
2011,09,25,16,11,8.40
2011,09,25,16,12,11.90
2011,09,25,16,13,7.60
2011,09,25,16,14,4.90
2011,09,25,16,15,17.20
2011,09,25,16,16,19.90
2011,09,25,16,17,18.00
2011,09,25,16,18,14.20
2011,09,25,16,19,12.30
2011,09,25,16,20,6.80
2011,09,25,16,21,7.20
2011,09,25,16,22,5.40
2011,09,25,16,23,5.30
2011,09,25,16,24,11.40
2011,09,25,16,25,8.90
2011,09,25,16,26,17.20
2011,09,25,16,27,14.60
2011,09,25,16,28,5.60
2011,09,25,16,29,10.40
2011,09,25,16,30,7.10
2011,09,25,16,31,10.60
2011,09,25,16,32,9.20
2011,09,25,16,33,11.70
2011,09,25,16,34,10.90
2011,09,25,16,35,16.10
2011,09,25,16,36,7.40
2011,09,25,16,37,11.60
2011,09,25,16,38,11.10
2011,09,25,16,39,14.00
2011,09,25,16,40,16.10
2011,09,25,16,41,6.80
2011,09,25,16,42,2.20
2011,09,25,16,43,14.40
2011,09,25,16,44,11.20
2011,09,25,16,45,10.20
2011,09,25,16,46,9.90
2011,09,25,16,47,11.80
2011,09,25,16,48,5.60
2011,09,25,16,49,6.70
2011,09,25,16,50,11.80
2011,09,25,16,51,8.60
2011,09,25,16,52,7.60
2011,09,25,16,53,9.70
2011,09,25,16,54,13.60
2011,09,25,16,55,13.40
2011,09,25,16,56,12.60
2011,09,25,16,57,8.30
2011,09,25,16,58,10.10
2011,09,25,16,59,13.90
2011,09,25,17,00,5.20
2011,09,25,17,01,11.20
2011,09,25,17,02,11.70
2011,09,25,17,03,15.20
2011,09,25,17,04,8.30
2011,09,25,17,05,6.80
2011,09,25,17,06,7.20
2011,09,25,17,07,4.30
2011,09,25,17,08,10.90
2011,09,25,17,09,8.30
2011,09,25,17,10,17.50
2011,09,25,17,11,22.80
2011,09,25,17,12,9.70
2011,09,25,17,13,13.20
2011,09,25,17,14,11.60
2011,09,25,17,15,5.90
2011,09,25,17,16,14.10
2011,09,25,17,17,12.50
2011,09,25,17,18,7.30
2011,09,25,17,19,16.70
2011,09,25,17,20,17.50
2011,09,25,17,21,9.40
2011,09,25,17,22,8.40
2011,09,25,17,23,15.70
2011,09,25,17,24,19.20
2011,09,25,17,25,11.80
2011,09,25,17,26,17.20
2011,09,25,17,27,16.00
2011,09,25,17,28,12.40
2011,09,25,17,29,11.10
2011,09,25,17,30,12.70
2011,09,25,17,31,8.20
2011,09,25,17,32,6.10
2011,09,25,17,33,8.30
2011,09,25,17,34,10.40
2011,09,25,17,35,8.10
2011,09,25,17,36,4.50
2011,09,25,17,37,5.10
2011,09,25,17,38,5.90
2011,09,25,17,39,5.20
2011,09,25,17,40,18.50
2011,09,25,17,41,6.50
2011,09,25,17,42,8.30
2011,09,25,17,43,9.00
2011,09,25,17,44,16.50
2011,09,25,17,45,11.70
2011,09,25,17,46,8.60
2011,09,25,17,47,12.30
2011,09,25,17,48,13.00
2011,09,25,17,49,7.30
2011,09,25,17,50,14.80
2011,09,25,17,51,7.40
2011,09,25,17,52,9.40
2011,09,25,17,53,8.90
2011,09,25,17,54,12.10
2011,09,25,17,55,7.30
2011,09,25,17,56,7.20
2011,09,25,17,57,8.10
2011,09,25,17,58,8.60
2011,09,25,17,59,8.20
2011,09,25,18,00,6.60
2011,09,25,18,01,9.40
2011,09,25,18,02,10.40
2011,09,25,18,03,6.40
2011,09,25,18,04,9.70
2011,09,25,18,05,8.00
2011,09,25,18,06,11.30
2011,09,25,18,07,6.90
2011,09,25,18,08,7.20
2011,09,25,18,09,11.10
2011,09,25,18,10,10.40
2011,09,25,18,11,6.90
2011,09,25,18,12,6.40
2011,09,25,18,13,3.50
2011,09,25,18,14,5.80
2011,09,25,18,15,7.00
2011,09,25,18,16,10.00
2011,09,25,18,17,9.00
2011,09,25,18,18,4.30
2011,09,25,18,19,5.60
2011,09,25,18,20,8.00
2011,09,25,18,21,6.40
2011,09,25,18,22,6.40
2011,09,25,18,23,6.40
2011,09,25,18,24,6.40
2011,09,25,18,25,6.40
2011,09,25,18,26,6.40
2011,09,25,18,27,6.40
2011,09,25,18,28,6.40
2011,09,25,18,29,6.40
2011,09,25,18,30,6.40
